Location: Cuiry
(49.3858°N, 3.7708°E)
Time: 00:38:35
(UTC+00:00)

UNK - Pass Details

Date: 17 April 2026
Orbit: 653 x 673 km, 98.4° (Epoch: 19 May)

Event Time Altitude Azimuth Distance (km) Brightness Sun altitude
Rises 04:09:32 0° 162° (SSE) 3,010 7.0 -6.9°
Reaches altitude 10° 04:11:45 10° 162° (SSE) 2,099 6.2 -6.6°
Maximum altitude 04:16:21 87° 75° (ENE) 680 3.8 -5.9°
Drops below altitude 10° 04:20:58 10° 346° (NNW) 2,107 6.4 -5.2°
Sets 04:23:12 0° 346° (NNW) 3,023 7.2 -4.9°
